Location: Jackson Park
(37.2862°N, 79.9123°W)
Time: 20:40:05
(UTC+00:00)

S-56A Canister/Altair - Pass Details

Date: 15 May 2026
Orbit: 633 x 2484 km, 38.9° (Epoch: 6 June)

Event Time Altitude Azimuth Distance (km) Brightness Sun altitude
Rises 02:22:06 0° 253° (WSW) 3,018 11.0 -20.5°
Reaches altitude 10° 02:24:28 10° 253° (WSW) 2,034 10.0 -20.9°
Maximum altitude 02:28:56 85° 165° (SSE) 641 7.0 -21.5°
Enters shadow 02:30:26 42° 80° (E) 918 7.6 -21.7°
Drops below altitude 10° 02:33:40 10° 78° (ENE) 2,157 - -22.1°
Sets 02:36:16 0° 77° (ENE) 3,220 - -22.4°
